Tillbaka till svenska Fidonet
English   Information   Debug  
FILM   0/18
FNEWS_PUBLISH   4926
FN_SYSOP   42201
FN_SYSOP_OLD1   71952
FTP_FIDO   0/2
FTSC_PUBLIC   0/13973
FUNNY   0/4886
GENEALOGY.EUR   0/71
GET_INFO   105
GOLDED   0/408
HAM   0/16662
HOLYSMOKE   0/6791
HOT_SITES   0/1
HTMLEDIT   0/71
HUB203   466
HUB_100   264
HUB_400   39
HUMOR   0/29
IC   0/2851
INTERNET   0/424
INTERUSER   0/3
IP_CONNECT   719
JAMNNTPD   0/233
JAMTLAND   0/47
KATTY_KORNER   0/41
LAN   0/16
LINUX-USER   0/19
LINUXHELP   0/1155
LINUX   0/22300
LINUX_BBS   0/957
mail   18.68
mail_fore_ok   249
MENSA   0/341
MODERATOR   0/102
MONTE   0/992
MOSCOW_OKLAHOMA   0/1245
MUFFIN   0/783
MUSIC   0/321
N203_STAT   938
N203_SYSCHAT   313
NET203   321
NET204   69
NET_DEV   0/10
NORD.ADMIN   0/101
NORD.CHAT   0/2572
NORD.FIDONET   189
NORD.HARDWARE   0/28
NORD.KULTUR   0/114
NORD.PROG   0/32
NORD.SOFTWARE   0/88
NORD.TEKNIK   0/58
NORD   0/453
OCCULT_CHAT   0/93
OS2BBS   0/787
OS2DOSBBS   0/580
OS2HW   0/42
OS2INET   0/37
OS2LAN   0/134
OS2PROG   0/36
OS2REXX   0/113
OS2USER-L   207
OS2   0/4830
OSDEBATE   0/18996
PASCAL   0/490
PERL   0/457
PHP   0/45
POINTS   0/405
POLITICS   0/29554
POL_INC   0/14731
PSION   103
R20_ADMIN   1133
R20_AMATORRADIO   0/2
R20_BEST_OF_FIDONET   16
R20_CHAT   0/896
R20_DEPP   0/3
R20_DEV   400
R20_ECHO2   1833
R20_ECHOPRES   0/35
R20_ESTAT   0/719
R20_FIDONETPROG...
...RAM.MYPOINT
  0/2
R20_FIDONETPROGRAM   0/22
R20_FIDONET   0/248
R20_FILEFIND   0/24
R20_FILEFOUND   0/22
R20_HIFI   0/3
R20_INFO2   3726
R20_INTERNET   0/12940
R20_INTRESSE   0/60
R20_INTR_KOM   0/99
R20_KANDIDAT.CHAT   42
R20_KANDIDAT   28
R20_KOM_DEV   112
R20_KONTROLL   0/13360
R20_KORSET   0/18
R20_LOKALTRAFIK   0/24
R20_MODERATOR   0/1852
R20_NC   76
R20_NET200   245
R20_NETWORK.OTH...
...ERNETS
  0/13
R20_OPERATIVSYS...
...TEM.LINUX
  0/44
R20_PROGRAMVAROR   0/1
R20_REC2NEC   534
R20_SFOSM   0/341
R20_SF   0/108
R20_SPRAK.ENGLISH   0/1
R20_SQUISH   107
R20_TEST   2
R20_WORST_OF_FIDONET   20
RAR   0/9
RA_MULTI   106
RA_UTIL   0/162
REGCON.EUR   0/2068
REGCON   0/13
SCIENCE   0/1206
SF   0/239
SHAREWARE_SUPPORT   0/5146
SHAREWRE   0/14
SIMPSONS   0/169
STATS_OLD1   0/2539.065
STATS_OLD2   0/2530
STATS_OLD3   0/2395.095
STATS_OLD4   0/1692.25
SURVIVOR   0/495
SYSOPS_CORNER   0/3
SYSOP   0/84
TAGLINES   0/112
TEAMOS2   0/4530
TECH   0/2617
TEST.444   0/105
TRAPDOOR   0/19
TREK   0/755
TUB   0/290
UFO   0/40
UNIX   0/1316
USA_EURLINK   0/102
USR_MODEMS   0/1
VATICAN   0/2740
VIETNAM_VETS   0/14
VIRUS   0/378
VIRUS_INFO   0/201
VISUAL_BASIC   0/473
WHITEHOUSE   0/5187
WIN2000   0/101
WIN32   0/30
WIN95   0/4291
WIN95_OLD1   0/70272
WINDOWS   0/1517
WWB_SYSOP   0/419
WWB_TECH   0/810
ZCC-PUBLIC   0/1
ZEC   4

 
4DOS   0/134
ABORTION   0/7
ALASKA_CHAT   0/506
ALLFIX_FILE   0/1313
ALLFIX_FILE_OLD1   0/7997
ALT_DOS   0/152
AMATEUR_RADIO   0/1039
AMIGASALE   0/14
AMIGA   0/331
AMIGA_INT   0/1
AMIGA_PROG   0/20
AMIGA_SYSOP   0/26
ANIME   0/15
ARGUS   0/924
ASCII_ART   0/340
ASIAN_LINK   0/651
ASTRONOMY   0/417
AUDIO   0/92
AUTOMOBILE_RACING   0/105
BABYLON5   0/17862
BAG   135
BATPOWER   0/361
BBBS.ENGLISH   0/382
BBSLAW   0/109
BBS_ADS   0/5290
BBS_INTERNET   0/507
BIBLE   0/3563
BINKD   0/1119
BINKLEY   0/215
BLUEWAVE   0/2173
CABLE_MODEMS   0/25
CBM   0/46
CDRECORD   0/66
CDROM   0/20
CLASSIC_COMPUTER   0/378
COMICS   0/15
CONSPRCY   0/899
COOKING   41467
COOKING_OLD1   0/24719
COOKING_OLD2   0/40862
COOKING_OLD3   0/37489
COOKING_OLD4   0/35496
COOKING_OLD5   9370
C_ECHO   0/189
C_PLUSPLUS   0/31
DIRTY_DOZEN   0/201
DOORGAMES   0/2294
DOS_INTERNET   0/196
duplikat   6102
ECHOLIST   0/18295
EC_SUPPORT   0/318
ELECTRONICS   0/359
ELEKTRONIK.GER   1534
ENET.LINGUISTIC   0/13
ENET.POLITICS   0/4
ENET.SOFT   0/11701
ENET.SYSOP   34297
ENET.TALKS   0/32
ENGLISH_TUTOR   0/2000
EVOLUTION   0/1335
FDECHO   0/217
FDN_ANNOUNCE   0/7068
FIDONEWS   25062
FIDONEWS_OLD1   0/49742
FIDONEWS_OLD2   0/35949
FIDONEWS_OLD3   0/30874
FIDONEWS_OLD4   0/37224
FIDO_SYSOP   12922
FIDO_UTIL   0/180
FILEFIND   0/209
FILEGATE   0/212
Möte HAM, 16662 texter
 lista första sista föregående nästa
Text 3560, 880 rader
Skriven 2010-03-18 23:30:19 av Amsat List (1:323/120.0)
Ärende: [keps]  orb10077.amsa
=============================
[keps]  orb10077.amsa

Return-Path: <keps-bounces@amsat.org>
X-Rcpt: craig.healy@chowda.com
X-UIDL: 1268972928.17134

SB KEPS @ AMSAT  $ORB10077.O
Orbital Elements  10077.OSCAR

HR AMSAT ORBITAL ELEMENTS FOR OSCAR SATELLITES
FROM WA5QGD FORT WORTH,TX March 18, 2010
Send Subscribe/unsubscribe to KEPS at http://www.amsat.org/mailman/listinfo/kep
BID: ORB10077.O
TO ALL RADIO AMATEURS BT

Satellite: AO-07
Catalog number: 07530
Epoch time:      10076.66491894
Element set:     729
Inclination:      101.4083 deg
RA of node:       096.0672 deg
Eccentricity:    0.0012119
Arg of perigee:   093.2192 deg
Mean anomaly:     267.0266 deg
Mean motion:   12.53577903 rev/day
Decay rate:       -2.7e-07 rev/day^2
Epoch rev:           61698
Checksum:              310

Satellite: FO-29
Catalog number: 24278
Epoch time:      10076.55189153
Element set:     268
Inclination:      098.5190 deg
RA of node:       278.3256 deg
Eccentricity:    0.0351159
Arg of perigee:   001.6991 deg
Mean anomaly:     358.5255 deg
Mean motion:   13.52947904 rev/day
Decay rate:       -4.4e-07 rev/day^2
Epoch rev:           67071
Checksum:              334

Satellite: SO-33
Catalog number: 25509
Epoch time:      10076.76732150
Element set:     671
Inclination:      031.4343 deg
RA of node:       305.4984 deg
Eccentricity:    0.0354278
Arg of perigee:   210.5710 deg
Mean anomaly:     147.3818 deg
Mean motion:   14.28298520 rev/day
Decay rate:       2.38e-06 rev/day^2
Epoch rev:           59497
Checksum:              312

Satellite: RS-22
Catalog number: 27939
Epoch time:      10077.66436658
Element set:      35
Inclination:      097.9059 deg
RA of node:       306.9250 deg
Eccentricity:    0.0013396
Arg of perigee:   350.8311 deg
Mean anomaly:     009.2645 deg
Mean motion:   14.63393073 rev/day
Decay rate:       1.78e-06 rev/day^2
Epoch rev:           34571
Checksum:              319

Satellite: VO-52
Catalog number: 28650
Epoch time:      10077.23804430
Element set:     458
Inclination:      097.7028 deg
RA of node:       134.1758 deg
Eccentricity:    0.0026401
Arg of perigee:   212.1128 deg
Mean anomaly:     147.8504 deg
Mean motion:   14.81700628 rev/day
Decay rate:        1.2e-07 rev/day^2
Epoch rev:           26322
Checksum:              271

Satellite: SO-67
Catalog number: 35870
Epoch time:      10077.76161758
Element set:     550
Inclination:      097.3428 deg
RA of node:       129.1473 deg
Eccentricity:    0.0009562
Arg of perigee:   022.9286 deg
Mean anomaly:     086.5891 deg
Mean motion:   15.22397023 rev/day
Decay rate:      1.060e-05 rev/day^2
Epoch rev:            2770
Checksum:              316

Satellite: HO-68
Catalog number: 36122
Epoch time:      10077.64644466
Element set:     159
Inclination:      100.4797 deg
RA of node:       138.9588 deg
Eccentricity:    0.0007341
Arg of perigee:   180.8113 deg
Mean anomaly:     179.2993 deg
Mean motion:   13.16280139 rev/day
Decay rate:       -4.5e-07 rev/day^2
Epoch rev:            1230
Checksum:              306

/EX
SB KEPS @ AMSAT  $ORB10077.D
Orbital Elements  10077.MICROS

HR AMSAT ORBITAL ELEMENTS FOR THE MICROSATS
FROM WA5QGD FORT WORTH,TX March 18, 2010
Send Subscribe/unsubscribe to KEPS at http://www.amsat.org/mailman/listinfo/kep
BID: ORB10077.D
TO ALL RADIO AMATEURS BT

Satellite: UO-11
Catalog number: 14781
Epoch time:      10077.14387661
Element set:     199
Inclination:      098.0681 deg
RA of node:       128.5591 deg
Eccentricity:    0.0008933
Arg of perigee:   165.9441 deg
Mean anomaly:     194.2284 deg
Mean motion:   14.79777886 rev/day
Decay rate:      -1.13e-06 rev/day^2
Epoch rev:           39834
Checksum:              346

Satellite: AO-16
Catalog number: 20439
Epoch time:      10077.41544522
Element set:     848
Inclination:      098.3218 deg
RA of node:       038.9428 deg
Eccentricity:    0.0011973
Arg of perigee:   077.3008 deg
Mean anomaly:     282.9529 deg
Mean motion:   14.31852189 rev/day
Decay rate:        1.3e-07 rev/day^2
Epoch rev:            5239
Checksum:              311

Satellite: LO-19
Catalog number: 20442
Epoch time:      10077.70726457
Element set:     759
Inclination:      098.2831 deg
RA of node:       045.3923 deg
Eccentricity:    0.0012886
Arg of perigee:   071.3959 deg
Mean anomaly:     288.8615 deg
Mean motion:   14.32085470 rev/day
Decay rate:       1.45e-06 rev/day^2
Epoch rev:            5260
Checksum:              317

Satellite: AO-27
Catalog number: 22825
Epoch time:      10077.77720919
Element set:     482
Inclination:      098.4768 deg
RA of node:       028.1082 deg
Eccentricity:    0.0008526
Arg of perigee:   169.3009 deg
Mean anomaly:     190.8355 deg
Mean motion:   14.29289518 rev/day
Decay rate:       -2.9e-07 rev/day^2
Epoch rev:           85913
Checksum:              340

Satellite: IO-26
Catalog number: 22826
Epoch time:      10077.36886729
Element set:     218
Inclination:      098.4696 deg
RA of node:       028.3471 deg
Eccentricity:    0.0009142
Arg of perigee:   166.2136 deg
Mean anomaly:     193.9303 deg
Mean motion:   14.29544629 rev/day
Decay rate:        2.1e-07 rev/day^2
Epoch rev:           85918
Checksum:              330

Satellite: GO-32
Catalog number: 25397
Epoch time:      10077.05526959
Element set:     138
Inclination:      098.3150 deg
RA of node:       089.5170 deg
Eccentricity:    0.0001887
Arg of perigee:   138.2958 deg
Mean anomaly:     221.8350 deg
Mean motion:   14.23173848 rev/day
Decay rate:        3.3e-07 rev/day^2
Epoch rev:           60708
Checksum:              315

